Location: Maynard F. Jordan Observatory
(44.9000°N, 68.6700°W)
Time: 01:16:45
(UTC-04:00)

Cosmos 2297 Rocket - Visible Passes

Search period start: 27 March 2015 00:00
Search period end: 06 April 2015 00:00
Orbit: 841 x 843 km, 71.0° (Epoch: 25 March)

Date Brightness Start Highest point End Pass type
(mag) Time Alt. Az. Time Alt. Az. Time Alt. Az.
27 Mar 5.2 04:49:23 10° NNE 04:50:48 11° NE 04:52:28 10° NE visible
27 Mar 2.5 21:30:46 51° NE 21:30:46 51° NE 21:35:05 10° NNE visible
27 Mar 4.3 23:12:23 20° WNW 23:14:06 23° NW 23:18:26 10° N visible
28 Mar 5.3 04:34:38 10° NNE 04:35:41 11° NE 04:36:59 10° NE visible
28 Mar 2.1 21:08:49 10° SSW 21:14:23 66° ESE 21:20:01 10° NNE visible
28 Mar 4.3 22:54:29 10° W 22:59:00 23° NW 23:03:26 10° N visible
29 Mar 5.4 04:20:02 10° NNE 04:20:34 10° NNE 04:21:19 10° NE visible
29 Mar 2.1 20:53:48 10° S 20:59:21 62° ESE 21:04:57 10° NNE visible
29 Mar 4.2 22:39:18 10° WSW 22:43:54 24° NW 22:48:26 10° N visible
30 Mar 3.6 05:45:51 10° NNW 05:51:13 43° NE 05:56:35 10° SE visible
30 Mar 2.2 20:38:47 10° S 20:44:18 59° ESE 20:49:53 10° NNE visible
30 Mar 4.2 22:24:08 10° WSW 22:28:49 25° NW 22:33:25 10° N visible
31 Mar 3.7 05:30:50 10° NNW 05:36:09 41° NE 05:41:28 10° SE visible
31 Mar 2.2 20:23:46 10° S 20:29:15 56° ESE 20:34:48 10° NNE visible
31 Mar 4.2 22:08:58 10° WSW 22:13:43 26° NW 22:18:24 10° N visible
01 Apr 3.8 05:15:48 10° NNW 05:21:04 39° NE 05:26:21 10° SE visible
01 Apr 2.3 20:08:45 10° S 20:14:13 53° ESE 20:19:44 10° NE visible
01 Apr 4.2 21:53:48 10° WSW 21:58:38 27° NW 22:03:24 10° N visible
02 Apr 3.8 05:00:46 10° NNW 05:05:59 37° NE 05:11:14 10° ESE visible
02 Apr 2.3 19:53:45 10° S 19:59:10 51° ESE 20:04:39 10° NE visible
02 Apr 4.1 21:38:39 10° WSW 21:43:32 29° NW 21:48:22 10° N visible
03 Apr 3.9 04:45:44 10° NNW 04:50:54 36° NE 04:56:06 10° ESE visible
03 Apr 2.4 19:38:45 10° S 19:44:08 48° ESE 19:49:34 10° NE visible
03 Apr 4.1 21:23:30 10° WSW 21:28:27 30° NW 21:33:22 10° N visible
04 Apr 3.9 04:30:43 10° N 04:35:49 34° NE 04:40:58 10° ESE visible
04 Apr 4.1 21:08:21 10° WSW 21:13:22 31° NW 21:18:20 10° N visible
05 Apr 4.0 04:15:41 10° N 04:20:44 33° NE 04:25:50 10° ESE visible
05 Apr 4.0 20:53:12 10° WSW 20:58:16 32° NW 21:03:18 10° N visible
